When you browse on this site, cookies collect data to enhance your experience and personalize the content and advertising you see.
Visit our Privacy Policy to learn more. By continuing to use the site, you agree to this use of cookies and data.
  • In Schweiz
  • Länderverzeichnis
  • Für 7 Tage
  • Wassertemperatur
  • Wetterkarte
  • Widgets
  • user-avatar
    Anmelden

    Stündliche Wetter Korçe

    Heute, 17 November, Sonntag

    Zeit Temperatur Niederschläge Wind Luftdruck Luftfeuchtigkeit
    00:00 +7°C° 0 mm 2 m/S 667 mmHg 89%
    01:00 +7°C° 0 mm 2 m/S 667 mmHg 88%
    02:00 +7°C° 0 mm 2 m/S 666 mmHg 88%
    03:00 +7°C° 0 mm 2 m/S 666 mmHg 88%
    04:00 +7°C° 0 mm 2 m/S 666 mmHg 88%
    05:00 +7°C° 0 mm 2 m/S 666 mmHg 88%
    06:00 +7°C° 0 mm 2 m/S 666 mmHg 88%
    07:00 +7°C° 0 mm 2 m/S 666 mmHg 88%
    08:00 +8°C° 0 mm 2 m/S 666 mmHg 82%
    09:00 +10°C° 0 mm 2 m/S 667 mmHg 77%
    10:00 +11°C° 0 mm 3 m/S 667 mmHg 71%
    11:00 +13°C° 0 mm 2 m/S 667 mmHg 68%
    12:00 +13°C° 0 mm 2 m/S 667 mmHg 66%
    13:00 +14°C° 0 mm 2 m/S 666 mmHg 63%
    14:00 +13°C° 0 mm 2 m/S 666 mmHg 68%
    15:00 +12°C° 0 mm 2 m/S 666 mmHg 73%
    16:00 +10°C° 0 mm 2 m/S 665 mmHg 77%
    17:00 +9°C° 0 mm 2 m/S 665 mmHg 80%
    18:00 +9°C° 0 mm 2 m/S 665 mmHg 82%
    19:00 +8°C° 0 mm 2 m/S 665 mmHg 84%
    20:00 +8°C° 0 mm 2 m/S 664 mmHg 85%
    21:00 +7°C° 0 mm 2 m/S 664 mmHg 85%
    22:00 +7°C° 0 mm 3 m/S 664 mmHg 86%
    23:00 +7°C° 0.1 mm 3 m/S 664 mmHg 85%

    Morgen, 18 November, Montag

    Zeit Temperatur Niederschläge Wind Luftdruck Luftfeuchtigkeit
    00:00 +8°C° 0.1 mm 3 m/S 664 mmHg 84%
    01:00 +8°C° 0.1 mm 3 m/S 664 mmHg 84%
    02:00 +8°C° 4.7 mm 3 m/S 664 mmHg 88%
    03:00 +7°C° 4.7 mm 2 m/S 664 mmHg 92%
    04:00 +8°C° 4.7 mm 1 m/S 664 mmHg 96%
    05:00 +7°C° 0.9 mm 2 m/S 665 mmHg 95%
    06:00 +7°C° 0.9 mm 2 m/S 665 mmHg 94%
    07:00 +7°C° 0.9 mm 2 m/S 665 mmHg 92%
    08:00 +8°C° 0 mm 2 m/S 666 mmHg 87%
    09:00 +9°C° 0 mm 2 m/S 666 mmHg 81%
    10:00 +10°C° 0 mm 2 m/S 667 mmHg 75%
    11:00 +12°C° 0 mm 2 m/S 667 mmHg 72%
    12:00 +12°C° 0 mm 2 m/S 667 mmHg 69%
    13:00 +12°C° 0 mm 2 m/S 667 mmHg 65%
    14:00 +12°C° 0 mm 1 m/S 667 mmHg 69%
    15:00 +11°C° 0 mm 1 m/S 667 mmHg 73%
    16:00 +10°C° 0 mm 1 m/S 667 mmHg 77%
    17:00 +9°C° 0 mm 1 m/S 667 mmHg 80%
    18:00 +9°C° 0 mm 1 m/S 667 mmHg 82%
    19:00 +8°C° 0 mm 1 m/S 667 mmHg 84%
    20:00 +8°C° 0 mm 1 m/S 667 mmHg 84%
    21:00 +7°C° 0 mm 1 m/S 667 mmHg 84%
    22:00 +7°C° 0 mm 1 m/S 667 mmHg 83%
    23:00 +7°C° 0 mm 1 m/S 667 mmHg 82%

    übermorgen, 19 November, Dienstag

    Zeit Temperatur Niederschläge Wind Luftdruck Luftfeuchtigkeit
    00:00 +7°C° 0 mm 1 m/S 667 mmHg 80%
    01:00 +7°C° 0 mm 1 m/S 667 mmHg 79%
    02:00 +7°C° 0 mm 1 m/S 667 mmHg 79%
    03:00 +6°C° 0 mm 2 m/S 667 mmHg 79%
    04:00 +6°C° 0 mm 2 m/S 667 mmHg 79%
    05:00 +6°C° 0 mm 2 m/S 667 mmHg 80%
    06:00 +6°C° 0 mm 2 m/S 667 mmHg 82%
    07:00 +7°C° 0 mm 1 m/S 668 mmHg 83%
    08:00 +8°C° 0 mm 2 m/S 668 mmHg 80%
    09:00 +9°C° 0 mm 2 m/S 669 mmHg 77%
    10:00 +12°C° 0 mm 2 m/S 669 mmHg 74%
    11:00 +12°C° 0 mm 2 m/S 669 mmHg 71%
    12:00 +13°C° 0 mm 2 m/S 669 mmHg 69%
    13:00 +13°C° 0 mm 2 m/S 668 mmHg 67%
    14:00 +12°C° 0.2 mm 2 m/S 668 mmHg 73%
    15:00 +11°C° 0.2 mm 1 m/S 667 mmHg 78%
    16:00 +10°C° 0.2 mm 1 m/S 667 mmHg 84%
    17:00 +10°C° 0.9 mm 1 m/S 666 mmHg 87%
    18:00 +10°C° 0.9 mm 1 m/S 666 mmHg 90%
    19:00 +9°C° 0.9 mm 2 m/S 666 mmHg 93%
    20:00 +9°C° 1.2 mm 2 m/S 666 mmHg 93%
    21:00 +9°C° 1.2 mm 2 m/S 666 mmHg 93%
    22:00 +9°C° 1.2 mm 1 m/S 666 mmHg 94%
    23:00 +9°C° 1.2 mm 1 m/S 666 mmHg 94%

    20 November, Mittwoch

    Zeit Temperatur Niederschläge Wind Luftdruck Luftfeuchtigkeit
    00:00 +9°C° 1.2 mm 1 m/S 665 mmHg 94%
    01:00 +9°C° 1.2 mm 1 m/S 665 mmHg 93%
    02:00 +9°C° 1.2 mm 1 m/S 665 mmHg 93%
    03:00 +8°C° 1.2 mm 1 m/S 665 mmHg 93%
    04:00 +8°C° 1.2 mm 1 m/S 665 mmHg 93%
    05:00 +8°C° 0.8 mm 1 m/S 665 mmHg 93%
    06:00 +7°C° 0.8 mm 1 m/S 664 mmHg 93%
    07:00 +7°C° 0.8 mm 1 m/S 664 mmHg 92%
    08:00 +7°C° 0.1 mm 2 m/S 665 mmHg 87%
    09:00 +8°C° 0.1 mm 2 m/S 666 mmHg 81%
    10:00 +9°C° 0.1 mm 2 m/S 666 mmHg 75%
    11:00 +9°C° 0.1 mm 2 m/S 666 mmHg 72%
    12:00 +10°C° 0.1 mm 2 m/S 666 mmHg 69%
    13:00 +10°C° 0.1 mm 2 m/S 666 mmHg 66%
    14:00 +9°C° 0.1 mm 2 m/S 666 mmHg 72%
    15:00 +10°C° 0.1 mm 1 m/S 666 mmHg 77%
    16:00 +9°C° 0.1 mm 1 m/S 666 mmHg 83%
    17:00 +8°C° 0 mm 1 m/S 666 mmHg 86%
    18:00 +7°C° 0 mm 1 m/S 666 mmHg 89%
    19:00 +6°C° 0 mm 0 m/S 666 mmHg 93%
    20:00 +5°C° 0 mm 0 m/S 666 mmHg 93%
    21:00 +5°C° 0 mm 0 m/S 666 mmHg 93%
    22:00 +5°C° 0 mm 0 m/S 666 mmHg 94%
    23:00 +5°C° 0 mm 0 m/S 666 mmHg 94%

    21 November, Donnerstag

    Zeit Temperatur Niederschläge Wind Luftdruck Luftfeuchtigkeit
    00:00 +5°C° 0 mm 0 m/S 666 mmHg 94%
    01:00 +5°C° 0 mm 0 m/S 666 mmHg 94%
    02:00 +5°C° 0 mm 0 m/S 666 mmHg 94%
    03:00 +4°C° 0 mm 0 m/S 666 mmHg 93%
    04:00 +4°C° 0 mm 0 m/S 666 mmHg 93%
    05:00 +4°C° 0 mm 0 m/S 666 mmHg 92%
    06:00 +4°C° 0 mm 0 m/S 666 mmHg 91%
    07:00 +4°C° 0 mm 0 m/S 666 mmHg 91%
    08:00 +6°C° 0 mm 0 m/S 666 mmHg 84%
    09:00 +8°C° 0 mm 0 m/S 667 mmHg 77%
    10:00 +9°C° 0 mm 0 m/S 667 mmHg 71%
    11:00 +10°C° 0 mm 0 m/S 667 mmHg 68%
    12:00 +11°C° 0 mm 1 m/S 667 mmHg 65%
    13:00 +12°C° 0 mm 1 m/S 667 mmHg 63%
    14:00 +11°C° 0 mm 1 m/S 666 mmHg 68%
    15:00 +10°C° 0 mm 1 m/S 666 mmHg 74%
    16:00 +9°C° 0 mm 1 m/S 666 mmHg 80%
    17:00 +9°C° 0 mm 1 m/S 666 mmHg 82%
    18:00 +8°C° 0 mm 1 m/S 666 mmHg 85%
    19:00 +6°C° 0 mm 0 m/S 666 mmHg 87%
    20:00 +7°C° 0 mm 1 m/S 666 mmHg 87%
    21:00 +7°C° 0 mm 1 m/S 666 mmHg 86%
    22:00 +7°C° 0 mm 1 m/S 666 mmHg 86%
    23:00 +6°C° 0 mm 1 m/S 666 mmHg 86%

    22 November, Freitag

    Zeit Temperatur Niederschläge Wind Luftdruck Luftfeuchtigkeit
    00:00 +6°C° 0 mm 1 m/S 666 mmHg 86%
    01:00 +6°C° 0 mm 1 m/S 666 mmHg 85%
    02:00 +6°C° 0 mm 1 m/S 666 mmHg 86%
    03:00 +5°C° 0 mm 1 m/S 666 mmHg 86%
    04:00 +5°C° 0 mm 1 m/S 666 mmHg 87%
    05:00 +5°C° 0 mm 1 m/S 666 mmHg 87%
    06:00 +5°C° 0 mm 1 m/S 666 mmHg 87%
    07:00 +5°C° 0 mm 1 m/S 666 mmHg 88%
    08:00 +7°C° 0 mm 1 m/S 667 mmHg 82%
    09:00 +8°C° 0 mm 1 m/S 668 mmHg 75%
    10:00 +10°C° 0 mm 1 m/S 668 mmHg 69%
    11:00 +10°C° 0 mm 1 m/S 668 mmHg 65%
    12:00 +11°C° 0 mm 1 m/S 668 mmHg 61%
    13:00 +12°C° 0 mm 1 m/S 668 mmHg 57%
    14:00 +11°C° 0 mm 1 m/S 668 mmHg 62%
    15:00 +10°C° 0 mm 1 m/S 667 mmHg 67%
    16:00 +9°C° 0 mm 1 m/S 667 mmHg 72%
    17:00 +8°C° 0 mm 1 m/S 667 mmHg 75%
    18:00 +7°C° 0 mm 1 m/S 667 mmHg 79%
    19:00 +7°C° 0 mm 1 m/S 667 mmHg 83%
    20:00 +5°C° 0 mm 2 m/S 667 mmHg 84%
    21:00 +5°C° 0 mm 2 m/S 667 mmHg 86%
    22:00 +5°C° 0 mm 2 m/S 667 mmHg 88%
    23:00 +5°C° 0 mm 2 m/S 667 mmHg 88%
    Mehr zeigen